軌道要素
Epoch 2019 Mar. 18.0 TT = JDT 2458560.5
T 2019 Feb. 26.22557 TT Bell
q 4.5758736 (2000.0) P Q
n 0.02166383 Peri. 131.63510 +0.97415834 +0.21316388
a 12.7441990 Node 216.24151 -0.22581086 +0.92646460
e 0.6409446 Incl. 7.25680 +0.00499803 +0.31020076
P 45.5
From 79 observations 2018 June 16-2020 Feb. 3, mean residual 0".3.
|